Orbital Elements at Epoch 2459200.5 (2020-Dec-17.0) TDB
Reference: JPL 34 (heliocentric ecliptic J2000)
Element | Value | Uncertainty (1-sigma) | Units |
e | .1230506057402823 | 1.7579e-08 | |
a | 2.572991427134878 | 9.0126e-09 | au |
q | 2.256383273461378 | 4.5352e-08 | au |
i | 9.263260528993206 | 3.0693e-07 | deg |
node | 273.3541439018428 | 6.3401e-06 | deg |
peri | 191.0242636685546 | 1.2274e-05 | deg |
M | 7.452056739743203 | 8.2171e-06 | deg |
tp | 2459169.294611929055 (2020-Nov-15.79461193) | 3.4402e-05 | TDB |
period | 1507.495191982018 4.13 | 7.9206e-06 2.169e-08 | d yr |
n | .2388067317990453 | 1.2547e-09 | deg/d |
Q | 2.889599580808378 | 1.0122e-08 | au |
|
| | Orbit Determination Parameters
Additional Information
|